Regional Weather Roundup
Issued by NWS Jackson, KY

Home | Current Version | Previous Version | Graphics & Text | Print | Product List | Glossary On
Versions: 1 2 3 4 5 6 7 8 9 10 11 12 13 14 15 16 17 18 19 20 21 22 23 24 25 26 27 28 29 30 31 32 33 34 35 36 37 38 39 40 41 42 43 44 45 46 47 48 49 50
000
ASUS43 KJKL 041810
RWRJKL

EAST KENTUCKY HOURLY WEATHER ROUNDUP
NATIONAL WEATHER SERVICE JACKSON KY
100 PM EST WED MAR 04 2015

NOTE: "FAIR" INDICATES FEW OR NO CLOUDS BELOW 12,000 FEET WITH
NO SIGNIFICANT WEATHER AND/OR OBSTRUCTIONS TO VISIBILITY.

* THESE REPORTS ARE NOT UNDER NWS QUALITY CONTROL AND MAY NOT
  REPORT WEATHER SUCH AS PRECIPITATION AND FOG.

KYZ079-080-083-085-087-088-110-112-115-119-120-041900
...EASTERN KENTUCKY...

CITY           SKY/WX    TMP DP  RH WIND       PRES   REMARKS
JACKSON        RAIN      50  49  96 CALM      29.91S VSB 1/2
6HR MIN TEMP:  48; 6HR MAX TEMP:  50; 6HR PCP:  0.62;

LONDON         RAIN      52  50  93 CALM      29.91S FOG
6HR MIN TEMP:  50; 6HR MAX TEMP:  52; 6HR PCP:  0.54;

SOMERSET*      HVY RAIN  50  50 100 N12       29.94S
MONTICELLO*    FOG       54  52  94 CALM      29.95F VSB 3/4
6HR MIN TEMP:  51; 6HR MAX TEMP:  53; 6HR PCP:  0.57;

MIDDLESBORO*   DRIZZLE   49  49 100 CALM      29.92R
6HR MIN TEMP:  49; 6HR MAX TEMP:  56; 6HR PCP:  0.27;

HAZARD APT*    LGT RAIN  52  52 100 CALM      29.92R VSB 1
BLACK MTN*       N/A     45  45 100 S2          N/A
PIKEVILLE APT* RAIN      50  48  93 S3        29.92R VSB 1/2
BIG SANDY*     LGT RAIN  51  50  97 SW3       29.92R
6HR MIN TEMP:  48; 6HR MAX TEMP:  51;

MOREHEAD APT*  LGT RAIN  41  39  93 NW6G12    29.98R
$$

KYZ035-036-041-042-044-050-067-078-099-041900
...CENTRAL KENTUCKY...

CITY           SKY/WX    TMP DP  RH WIND       PRES   REMARKS
MT STERLING*   DRIZZLE   39  39 100 N6        29.99R WCI  35
FLEMING/MASON* RAIN      36  36 100 NW6       29.99R WCI  31
DANVILLE*      LGT RAIN  41  41 100 N6        29.99R
RICHMOND*      CLOUDY    41  41 100 CALM      29.96S
LEXINGTON      LGT RAIN  39  37  92 N10       29.98S WCI  32
6HR MIN TEMP:  39; 6HR MAX TEMP:  41; 6HR PCP:  0.53;

FRANKFORT      LGT RAIN  37  34  89 NW9       30.00R FOG     WCI  30
6HR MIN TEMP:  37; 6HR MAX TEMP:  41; 6HR PCP:  0.40;

$$

KYZ091>093-OHZ055-061-077-WVZ005-015-034-035-042-041900
...SOUTHERN OHIO/WEST VIRGINIA...

CITY           SKY/WX    TMP DP  RH WIND       PRES   REMARKS
COVINGTON      CLOUDY    36  31  82 N8        30.00S WCI  30
COLUMBUS       CLOUDY    35  30  82 NW6       29.98R HAZE    WCI  30
DAYTON         CLOUDY    34  26  72 N6        30.01S WCI  29
WILMINGTON     CLOUDY    34  29  82 NW7       29.99S WCI  28
HUNTINGTON     LGT RAIN  40  40 100 N7        29.94S FOG
CHARLESTON     LGT RAIN  48  46  93 NW12G18   29.92R FOG
PINEVILLE*     DRZL/FOG  44  44 100 MISG      29.96S VSB 1/4
BECKLEY        LGT RAIN  46  46 100 S8        29.91S FOG
BLUEFIELD      LGT RAIN  49  45  86 CALM      29.91F FOG
$$

VAZ002-007-008-TNZ017-027-036-066-071-041900
...SOUTHWEST VIRGINIA/EAST TENNESSEE...

CITY           SKY/WX    TMP DP  RH WIND       PRES   REMARKS
WISE*          DRIZZLE   46  46 100 CALM      29.92S
JONESVILLE*    LGT RAIN  45  45 100 E3        29.92S VSB<1/4
ABINGDON*      CLOUDY    55  55 100 N3        29.89F
BRISTOL        CLOUDY    65  56  72 W12G25    29.87S
KNOXVILLE      CLOUDY    70  59  68 SW23G33   29.89S
OAK RIDGE      LGT RAIN  66  60  81 SW10G21   29.88F
CROSSVILLE     CLOUDY    63  59  87 S9        29.88F
NASHVILLE      CLOUDY    47  45  93 N12       29.94F
$$

...KEY TO REMARKS...
VSB - VISIBILITY IN MILES
WCI - WIND CHILL INDEX
HX  - HEAT INDEX

$$


USA.gov is the U.S. government's official web portal to all federal, state and local government web resources and services.